Location: East Arcadia
(34.1056°N, 118.0176°W)
Time: 02:09:39
(UTC+00:00)

Cosmos 2227 Rocket - Pass Details

Date: 01 April 2023
Orbit: 839 x 844 km, 71.0° (Epoch: 08 June)

Event Time Altitude Azimuth Distance (km) Brightness Sun altitude
Rises 12:36:29 0° 339° (NNW) 3,396 5.3 -13.7°
Reaches altitude 10° 12:38:56 10° 340° (NNW) 2,458 4.6 -13.2°
Maximum altitude 12:44:35 88° 70° (ENE) 844 2.2 -12.0°
Drops below altitude 10° 12:50:13 10° 160° (SSE) 2,446 4.7 -10.9°
Sets 12:52:39 0° 160° (SSE) 3,378 5.4 -10.4°
